DW4174 Weather Reports


time (UTC)temp
F
wind
direction
speed
knots
gust
knots
rain 1hr
in
rain 24hr
in
rain mn
in
humidity
%
barometer
mb
20260508204213 98 307 3.5 8.7 0.00 0.00 0.00 13 1008.7
20260508203312 98 277 4.3 8.7 0.00 0.00 0.00 14 1008.8
20260508201513 96 184 3.5 10.4 0.00 0.00 0.00 14 1009.1
20260508200613 96 196 2.6 7.8 0.00 0.00 0.00 15 1009.3
20260508195713 97 199 1.7 6.1 0.00 0.00 0.00 15 1009.4
20260508194812 94 167 2.6 6.1 0.00 0.00 0.00 15 1009.4
20260508193914 95 212 2.6 6.1 0.00 0.00 0.00 14 1009.6
20260508193013 94 216 3.5 7.8 0.00 0.00 0.00 15 1009.9
20260508192112 97 227 3.5 11.3 0.00 0.00 0.00 14 1010.0
20260508191213 94 192 1.7 5.2 0.00 0.00 0.00 16 1010.1
20260508190313 93 195 3.5 6.1 0.00 0.00 0.00 16 1010.3
20260508185413 94 257 3.5 9.6 0.00 0.00 0.00 15 1010.4
20260508183612 91 193 1.7 6.1 0.00 0.00 0.00 17 1010.6
20260508182712 91 250 2.6 5.2 0.00 0.00 0.00 17 1010.7
20260508181812 91 243 2.6 6.1 0.00 0.00 0.00 16 1010.8
20260508180913 90 189 2.6 7.0 0.00 0.00 0.00 17 1011.0
20260508180012 90 213 1.7 5.2 0.00 0.00 0.00 19 1011.0
20260508174212 89 160 2.6 5.2 0.00 0.00 0.00 19 1011.2
20260508173312 88 204 1.7 5.2 0.00 0.00 0.00 20 1011.3
20260508172412 86 129 2.6 5.2 0.00 0.00 0.00 20 1011.3
20260508171512 86 173 2.6 5.2 0.00 0.00 0.00 21 1011.5
20260508170612 87 169 1.7 6.1 0.00 0.00 0.00 21 1011.5
20260508165712 86 144 2.6 6.1 0.00 0.00 0.00 22 1011.5
20260508164812 85 138 2.6 5.2 0.00 0.00 0.00 22 1011.6
20260508163912 84 109 2.6 6.1 0.00 0.00 0.00 22 1011.7
20260508162112 83 155 2.6 8.7 0.00 0.00 0.00 23 1011.6
20260508161212 83 129 2.6 4.3 0.00 0.00 0.00 24 1011.6
20260508160312 81 156 2.6 6.1 0.00 0.00 0.00 24 1011.6
20260508155412 81 163 2.6 7.0 0.00 0.00 0.00 24 1011.6
20260508153612 80 132 2.6 7.0 0.00 0.00 0.00 25 1011.6
20260508152712 80 137 2.6 7.0 0.00 0.00 0.00 26 1011.6
20260508151812 79 117 2.6 5.2 0.00 0.00 0.00 26 1011.7
20260508150912 79 125 2.6 5.2 0.00 0.00 0.00 26 1011.8
20260508150012 78 128 3.5 6.1 0.00 0.00 0.00 27 1011.8
20260508145112 78 123 3.5 6.1 0.00 0.00 0.00 27 1011.9
20260508144212 77 102 3.5 7.0 0.00 0.00 0.00 28 1011.8
20260508143312 77 96 2.6 6.1 0.00 0.00 0.00 28 1011.8
20260508142412 76 103 3.5 7.8 0.00 0.00 0.00 29 1011.7
20260508141513 75 106 3.5 7.0 0.00 0.00 0.00 29 1011.7
20260508140612 74 105 3.5 7.0 0.00 0.00 0.00 29 1011.6
20260508135712 73 106 2.6 6.1 0.00 0.00 0.00 30 1011.5
20260508134812 73 112 1.7 5.2 0.00 0.00 0.00 30 1011.4
20260508133912 72 106 2.6 6.1 0.00 0.00 0.00 31 1011.2
20260508133013 71 107 2.6 7.0 0.00 0.00 0.00 31 1011.0
20260508132113 71 106 2.6 6.1 0.00 0.00 0.00 32 1011.0
20260508131212 70 111 2.6 6.1 0.00 0.00 0.00 32 1010.8
20260508130312 70 112 3.5 7.0 0.00 0.00 0.00 32 1010.6
20260508125412 70 109 3.5 7.8 0.00 0.00 0.00 32 1010.5
20260508124512 70 121 2.6 8.7 0.00 0.00 0.00 32 1010.3
20260508122712 70 153 2.6 6.1 0.00 0.00 0.00 32 1010.2
20260508121812 70 116 3.5 7.0 0.00 0.00 0.00 32 1010.0
20260508120912 70 110 2.6 7.8 0.00 0.00 0.00 32 1010.1
20260508120012 70 113 2.6 7.0 0.00 0.00 0.00 32 1010.0
20260508115112 70 114 1.7 6.1 0.00 0.00 0.00 33 1010.1
20260508114212 70 104 1.7 6.1 0.00 0.00 0.00 33 1010.0
20260508113312 70 117 0.9 3.5 0.00 0.00 0.00 33 1009.9
20260508112412 70 111 0.9 2.6 0.00 0.00 0.00 33 1010.0
20260508111512 70 111 1.7 3.5 0.00 0.00 0.00 32 1009.9
20260508105712 70 129 1.7 5.2 0.00 0.00 0.00 32 1009.9
20260508104812 71 120 1.7 6.1 0.00 0.00 0.00 31 1009.9
20260508103912 70 116 0.9 5.2 0.00 0.00 0.00 32 1009.8
20260508103012 70 115 1.7 5.2 0.00 0.00 0.00 32 1009.9
20260508102112 70 116 0.9 5.2 0.00 0.00 0.00 32 1009.8
20260508101212 71 116 1.7 3.5 0.00 0.00 0.00 32 1009.7
20260508095412 71 115 2.6 7.0 0.00 0.00 0.00 30 1009.6
20260508094512 72 107 3.5 7.8 0.00 0.00 0.00 29 1009.5
20260508093612 72 112 2.6 7.8 0.00 0.00 0.00 28 1009.6
20260508092712 72 110 2.6 7.0 0.00 0.00 0.00 27 1009.6
20260508091812 72 114 3.5 6.1 0.00 0.00 0.00 25 1009.5
20260508090912 72 104 4.3 8.7 0.00 0.00 0.00 24 1009.5
20260508085112 73 96 3.5 7.8 0.00 0.00 0.00 21 1009.6
20260508084212 72 92 2.6 6.1 0.00 0.00 0.00 22 1009.6
20260508083312 73 97 0.9 6.1 0.00 0.00 0.00 23 1009.7
20260508080612 72 0 0.0 0.0 0.00 0.00 0.00 25 1009.6
20260508074812 74 108 1.7 2.6 0.00 0.00 0.00 23 1009.7
20260508073911 75 107 1.7 3.5 0.00 0.00 0.00 23 1009.7
20260508073013 75 99 1.7 3.5 0.00 0.00 0.00 23 1009.6
20260508072112 75 91 1.7 3.5 0.00 0.00 0.00 23 1009.4
20260508070311 76 100 1.7 3.5 0.00 0.00 0.00 22 1009.4
20260508065411 76 113 1.7 3.5 0.00 0.00 0.00 22 1009.3
20260508064511 75 246 0.0 3.5 0.00 0.00 0.00 23 1009.2
20260508063611 75 0 0.0 0.0 0.00 0.00 0.00 23 1009.3
20260508062711 75 261 0.0 1.7 0.00 0.00 0.00 23 1009.4
20260508061811 75 0 0.0 0.0 0.00 0.00 0.00 23 1009.4
20260508060911 75 0 0.0 0.0 0.00 0.00 0.00 23 1009.3
20260508060011 76 0 0.0 0.0 0.00 0.00 0.00 21 1009.3
20260508054212 76 0 0.0 0.0 0.00 0.00 0.00 21 1009.3
20260508053311 77 261 0.0 0.9 0.00 0.00 0.00 20 1009.3
20260508052411 78 261 0.9 1.7 0.00 0.00 0.00 19 1009.2
20260508051511 77 262 0.0 0.9 0.00 0.00 0.00 19 1009.0
20260508050611 77 0 0.0 0.0 0.00 0.00 0.00 19 1009.0
20260508045711 78 0 0.0 0.0 0.00 0.00 0.00 19 1009.0
20260508044811 78 0 0.0 0.0 0.00 0.00 0.00 18 1008.9
20260508043012 79 0 0.0 0.0 0.00 0.00 0.00 17 1008.8
20260508042111 80 0 0.0 0.0 0.00 0.00 0.00 16 1008.7
20260508041211 81 0 0.0 0.0 0.00 0.00 0.00 16 1008.6
20260508040311 82 262 0.9 1.7 0.00 0.00 0.00 15 1008.6
20260508035411 82 262 1.7 2.6 0.00 0.00 0.00 14 1008.5
20260508034511 83 265 1.7 3.5 0.00 0.00 0.00 14 1008.3
20260508033611 84 274 1.7 3.5 0.00 0.00 0.00 14 1008.2
20260508032711 84 279 1.7 2.6 0.00 0.00 0.00 13 1008.0
20260508030911 86 270 2.6 3.5 0.00 0.00 0.00 13 1007.9
20260508030011 87 255 3.5 5.2 0.00 0.00 0.00 12 1007.7
20260508025111 88 255 4.3 7.0 0.00 0.00 0.00 11 1007.7
20260508024211 88 256 4.3 7.8 0.00 0.00 0.00 11 1007.6
20260508022411 89 253 5.2 8.7 0.00 0.00 0.00 10 1007.3
20260508021511 90 257 6.1 10.4 0.00 0.00 0.00 10 1007.3
20260508020611 90 262 6.1 12.2 0.00 0.00 0.00 9 1007.2
20260508015711 91 280 6.1 10.4 0.00 0.00 0.00 9 1007.1
20260508014811 92 278 5.2 9.6 0.00 0.00 0.00 9 1007.1
20260508013911 92 267 4.3 8.7 0.00 0.00 0.00 8 1007.0
20260508013012 93 263 4.3 7.8 0.00 0.00 0.00 8 1006.9
20260508012111 93 263 6.1 10.4 0.00 0.00 0.00 8 1007.0
20260508011211 94 276 5.2 9.6 0.00 0.00 0.00 8 1006.8
20260508010312 94 285 6.1 10.4 0.00 0.00 0.00 7 1006.9
20260508005411 95 266 5.2 11.3 0.00 0.00 0.00 7 1006.8
20260508004511 95 270 3.5 7.8 0.00 0.00 0.00 7 1006.7
20260508003612 95 231 2.6 7.8 0.00 0.00 0.00 7 1006.8
20260508001812 95 225 3.5 6.1 0.00 0.00 0.00 7 1006.7
20260508000911 96 265 3.5 10.4 0.00 0.00 0.00 6 1006.8
20260508000011 96 244 2.6 8.7 0.00 0.00 0.00 7 1006.8
20260507235111 95 192 2.6 6.1 0.00 0.00 0.00 6 1006.8
20260507234212 95 23 3.5 7.8 0.00 0.00 0.00 7 1006.9
20260507233311 96 291 2.6 8.7 0.00 0.00 0.00 6 1007.0
20260507232411 96 338 2.6 7.0 0.00 0.00 0.00 6 1007.0
20260507231511 96 307 3.5 7.8 0.00 0.00 0.00 6 1007.1
20260507230611 96 98 1.7 9.6 0.00 0.00 0.00 6 1007.1
20260507223012 96 267 2.6 7.8 0.00 0.00 0.00 6 1007.6
20260507222111 96 317 5.2 9.6 0.00 0.00 0.00 6 1007.8
20260507221211 98 301 5.2 10.4 0.00 0.00 0.00 6 1007.8
20260507220311 98 295 5.2 9.6 0.00 0.00 0.00 6 1008.0
20260507215411 96 272 2.6 8.7 0.00 0.00 0.00 6 1008.0
20260507213611 96 190 3.5 9.6 0.00 0.00 0.00 7 1008.3
20260507212711 96 190 2.6 8.7 0.00 0.00 0.00 7 1008.4
20260507211810 96 219 2.6 7.8 0.00 0.00 0.00 8 1008.6
20260507210911 97 182 3.5 7.0 0.00 0.00 0.00 8 1008.8
20260507210011 97 237 3.5 11.3 0.00 0.00 0.00 7 1008.8